Puebla, Mexico

8:44 AM CDT on July 23, 2017 (GMT -0500)
Hermanos Serdan International

Weather History for MMPB - February, 2013

Change the Weather History Date:

Monday, February 18, 2013

  Actual Average Record
Temperature  
Mean Temperature 64 °F -  
Max Temperature 83 °F 69 °F 83 °F (2013)
Min Temperature 45 °F 42 °F 32 °F (2004)
Degree Days  
Heating Degree Days 1    
Growing Degree Days 14 (Base 50)    
Moisture  
Dew Point 35 °F    
Average Humidity 37    
Maximum Humidity 81    
Minimum Humidity 11    
Precipitation  
Precipitation 0.00 in - - ()
Sea Level Pressure  
Sea Level Pressure 30.15 in    
Wind  
Wind Speed 5 mph ()    
Max Wind Speed 21 mph    
Max Gust Speed -    
Visibility 6.7 miles    
Events      
Averages and records for this station are not official NWS values.
T = Trace of Precipitation, MM = Missing Value Source: Averaged Metar Reports

Daily Weather History Graph

Daily Weather History Graph

Search for Another Location

Airport or City:

Trip Planner

Search our weather history database for the weather conditions in past years. The results will help you decide how hot, cold, wet, or windy it might be!

Date:

Astronomy

Feb. 18, 2013 Rise Set
Actual Time 6:59 AM CST 6:34 PM CST
Civil Twilight 6:36 AM CST 6:56 PM CST
Nautical Twilight 6:11 AM CST 7:22 PM CST
Astronomical Twilight 5:45 AM CST 7:48 PM CST
Moon 12:43 PM CST (2/18) 1:18 AM CST (2/18)
Length of Visible Light 12h 19m
Length of Day
11h 35m
First Quarter, 58% of the Moon is Illuminated
Feb 18
First Quarter
Feb 25
Full
Mar 4
Last Quarter
Mar 11
New
Mar 19
First Quarter

Hourly Weather History & Observations

Time (CST) Temp. Windchill Dew Point Humidity Pressure Visibility Wind Dir Wind Speed Gust Speed Precip Events Conditions
2:50 AM 50 °F - 37 °F 49% 29.90 in 3 mi Calm Calm - -  
5:50 AM 46 °F - 38 °F 67% 29.96 in 3 mi Calm Calm - -  
6:01 AM 39.2 °F 34.2 °F 33.8 °F 81% 30.32 in 10.0 mi NW 6.9 mph - N/A   Clear
6:45 AM 41.0 °F 35.8 °F 35.6 °F 81% 30.33 in 8.0 mi NW 8.1 mph - N/A   Clear
7:42 AM 44.6 °F 41.4 °F 35.6 °F 71% 30.34 in 8.0 mi NNW 5.8 mph - N/A   Clear
8:43 AM 51.8 °F - 37.4 °F 58% 30.36 in 8.0 mi North 3.5 mph - N/A   Clear
8:50 AM 56 °F - 40 °F 45% 30.04 in 3 mi Calm Calm - -   Haze
9:45 AM 62.6 °F - 39.2 °F 42% 30.36 in 8.0 mi North 4.6 mph - N/A   Clear
10:42 AM 68.0 °F - 37.4 °F 33% 30.36 in 8.0 mi NE 6.9 mph - N/A   Clear
11:41 AM 71.6 °F - 35.6 °F 27% 30.32 in 8.0 mi NE 4.6 mph - N/A   Clear
11:50 AM 73 °F - 38 °F 18% 29.97 in 3 mi SSW 4.5 mph - -   Haze
12:41 PM 78.8 °F - 23.0 °F 13% 30.29 in 10.0 mi North 12.7 mph - N/A   Clear
1:40 PM 78.8 °F - 23.0 °F 13% 30.26 in 8.0 mi NNE 10.4 mph - N/A   Clear
2:47 PM 80.6 °F - 23.0 °F 12% 30.22 in 8.0 mi North 12.7 mph - N/A   Clear
2:55 PM 80 °F - 34 °F 11% 29.75 in 6 mi WSW 8.9 mph - -   Haze
3:41 PM 80.6 °F - 21.2 °F 11% 30.20 in 8.0 mi NE 6.9 mph - N/A   Clear
4:41 PM 75.2 °F - 39.2 °F 27% 30.20 in 8.0 mi SSE 20.7 mph - N/A   Partly Cloudy
5:40 PM 71.6 °F - 39.2 °F 31% 30.22 in 8.0 mi SSW 13.8 mph - N/A   Partly Cloudy
5:50 PM 74 °F - 39 °F 18% 29.66 in 6 mi SSE 4.5 mph - -   Haze
6:45 PM 66.2 °F - 39.2 °F 37% 30.24 in 6.0 mi SSW 9.2 mph - N/A   Partly Cloudy
7:41 PM 60.8 °F - 39.2 °F 45% 30.28 in 6.0 mi ENE 4.6 mph - N/A   Clear
8:40 PM 60.8 °F - 39.2 °F 45% 30.32 in 8.0 mi East 3.5 mph - N/A   Clear
8:55 PM 68 °F - 35 °F 19% 29.65 in 3 mi ENE 2.2 mph - -   Partly Cloudy
11:03 PM 51.8 °F - 37.4 °F 58% 30.34 in 10.0 mi NW 6.9 mph - N/A   Clear
11:59 PM 59 °F - 26 °F 17% 29.76 in 3 mi ENE 2.2 mph - -